CPA581 RJCC-VHHH

Flight info

Callsign CPA581
Flight time 4h 43m
Altitude 36000
Route DALBI1 DALBI TAPPI Y12 ARIKA Y14 MIHOU Y45 HKC Y50 IGMON A1 BULAN/N0487F380 A1 MAGOG V591 ABBEY ABBEY4A
Aircraft B77W/H-SDE1E2E3FGHIJ2J3J4J5M1RWXY/LB1D1

Departure

Time 2026-05-07 07:57
Airport New Chitose Airport (RJCC)

Arrival

Time 2026-05-07 12:40
Airport Hong Kong International Airport (VHHH)
Time Latitude Longitude Altitude Speed Heading
2026-05-07 07:39 42.78550 141.67511 94 ft 0 kts 82°
2026-05-07 07:46 42.78547 141.67482 76 ft 4 kts 84°
2026-05-07 07:47 42.78544 141.67451 72 ft 4 kts 73°
2026-05-07 07:47 42.78532 141.67422 73 ft 4 kts 31°
2026-05-07 07:47 42.78508 141.67413 95 ft 4 kts 355°
2026-05-07 07:47 42.78494 141.67415 95 ft 1 kts 353°
2026-05-07 07:49 42.78494 141.67416 95 ft 0 kts 353°
2026-05-07 07:50 42.78494 141.67415 95 ft 0 kts 353°
2026-05-07 07:50 42.78547 141.67406 95 ft 11 kts 353°
2026-05-07 07:51 42.78628 141.67392 96 ft 12 kts 353°
2026-05-07 07:51 42.78717 141.67377 94 ft 14 kts 353°
2026-05-07 07:51 42.78816 141.67360 92 ft 15 kts 353°
2026-05-07 07:51 42.78928 141.67342 89 ft 17 kts 353°
2026-05-07 07:52 42.79044 141.67322 91 ft 18 kts 352°
2026-05-07 07:52 42.79166 141.67304 91 ft 17 kts
2026-05-07 07:52 42.79230 141.67421 92 ft 17 kts 82°
2026-05-07 07:52 42.79245 141.67583 93 ft 17 kts 83°
2026-05-07 07:53 42.79260 141.67744 91 ft 17 kts 83°
2026-05-07 07:53 42.79267 141.67906 94 ft 17 kts 90°
2026-05-07 07:53 42.79252 141.68066 93 ft 17 kts 107°
2026-05-07 07:53 42.79206 141.68214 95 ft 17 kts 117°
2026-05-07 07:54 42.79139 141.68352 96 ft 18 kts 134°
2026-05-07 07:54 42.79042 141.68467 96 ft 18 kts 143°
2026-05-07 07:54 42.78949 141.68559 97 ft 15 kts 122°
2026-05-07 07:54 42.78937 141.68677 96 ft 13 kts 111°
2026-05-07 07:55 42.78877 141.68766 98 ft 13 kts 139°
2026-05-07 07:55 42.78816 141.68815 96 ft 9 kts 165°
2026-05-07 07:55 42.78795 141.68819 96 ft 0 kts 172°
2026-05-07 07:55 42.78794 141.68819 94 ft 0 kts 172°
2026-05-07 07:56 42.78782 141.68822 94 ft 10 kts 172°
2026-05-07 07:56 42.78534 141.68865 92 ft 71 kts 173°
2026-05-07 07:56 42.77800 141.68994 90 ft 138 kts 173°
2026-05-07 07:56 42.76670 141.69193 174 ft 178 kts 172°
2026-05-07 07:57 42.75433 141.69421 780 ft 181 kts 172°
2026-05-07 07:57 42.74186 141.69659 1449 ft 183 kts 175°
2026-05-07 07:57 42.72922 141.69898 1980 ft 193 kts 176°
2026-05-07 07:57 42.71500 141.70167 2201 ft 219 kts 175°
2026-05-07 07:58 42.69920 141.70473 2666 ft 235 kts 175°
2026-05-07 07:58 42.68265 141.70800 3279 ft 245 kts 176°
2026-05-07 07:58 42.66552 141.71138 4011 ft 252 kts 177°
2026-05-07 07:58 42.64801 141.71485 4848 ft 255 kts 178°
2026-05-07 07:59 42.63042 141.71832 5650 ft 258 kts 178°
2026-05-07 07:59 42.61248 141.72185 6416 ft 262 kts 178°
2026-05-07 07:59 42.59428 141.72438 7022 ft 262 kts 189°
2026-05-07 07:59 42.57759 141.71701 7595 ft 257 kts 218°
2026-05-07 08:00 42.56465 141.70019 8364 ft 255 kts 236°
2026-05-07 08:00 42.55569 141.67982 9089 ft 257 kts 242°
2026-05-07 08:00 42.54709 141.65831 9794 ft 262 kts 242°
2026-05-07 08:00 42.53840 141.63629 10403 ft 269 kts 242°
2026-05-07 08:01 42.52920 141.61296 10637 ft 293 kts 242°
2026-05-07 08:01 42.51919 141.58766 10847 ft 318 kts 242°
2026-05-07 08:01 42.50828 141.56022 11148 ft 339 kts 242°
2026-05-07 08:01 42.49689 141.53174 11852 ft 348 kts 242°
2026-05-07 08:02 42.48527 141.50278 12789 ft 352 kts 242°
2026-05-07 08:02 42.47350 141.47353 13800 ft 354 kts 242°
2026-05-07 08:02 42.46170 141.44426 14722 ft 355 kts 242°
2026-05-07 08:02 42.44979 141.41477 15673 ft 357 kts 242°
2026-05-07 08:03 42.43787 141.38528 16603 ft 358 kts 242°
2026-05-07 08:03 42.42586 141.35560 17511 ft 361 kts 242°
2026-05-07 08:03 42.41371 141.32562 18356 ft 364 kts 242°
2026-05-07 08:03 42.40169 141.29597 19115 ft 366 kts 242°
2026-05-07 08:04 42.38927 141.26538 19878 ft 368 kts 242°
2026-05-07 08:04 42.37686 141.23483 20639 ft 371 kts 242°
2026-05-07 08:04 42.36457 141.20460 21344 ft 373 kts 242°
2026-05-07 08:04 42.35201 141.17375 22042 ft 377 kts 242°
2026-05-07 08:05 42.33931 141.14260 22745 ft 380 kts 242°
2026-05-07 08:05 42.32651 141.11124 23425 ft 383 kts 242°
2026-05-07 08:05 42.31357 141.07960 23989 ft 385 kts 242°
2026-05-07 08:05 42.30058 141.04786 24549 ft 388 kts 243°
2026-05-07 08:06 42.28743 141.01576 25106 ft 390 kts 243°
2026-05-07 08:06 42.27424 140.98358 25655 ft 393 kts 243°
2026-05-07 08:06 42.26095 140.95119 26182 ft 395 kts 243°
2026-05-07 08:06 42.24755 140.91857 26707 ft 398 kts 243°
2026-05-07 08:07 42.23413 140.88590 27204 ft 400 kts 243°
2026-05-07 08:07 42.22056 140.85295 27682 ft 403 kts 243°
2026-05-07 08:07 42.20687 140.81975 28139 ft 406 kts 243°
2026-05-07 08:07 42.19308 140.78633 28580 ft 408 kts 243°
2026-05-07 08:08 42.17920 140.75277 28990 ft 411 kts 243°
2026-05-07 08:08 42.16524 140.71904 29377 ft 413 kts 243°
2026-05-07 08:08 42.15118 140.68508 29768 ft 416 kts 243°
2026-05-07 08:08 42.13703 140.65092 30070 ft 418 kts 243°
2026-05-07 08:09 42.12284 140.61674 30453 ft 417 kts 243°
2026-05-07 08:09 42.10869 140.58270 30942 ft 414 kts 243°
2026-05-07 08:09 42.09261 140.55086 31316 ft 416 kts 231°
2026-05-07 08:09 42.07075 140.52487 31653 ft 423 kts 222°
2026-05-07 08:10 42.04575 140.50351 32085 ft 428 kts 214°
2026-05-07 08:10 42.01775 140.48886 32535 ft 437 kts 205°
2026-05-07 08:10 41.98876 140.47822 32903 ft 437 kts 204°
2026-05-07 08:10 41.95926 140.46778 33188 ft 439 kts 203°
2026-05-07 08:11 41.92938 140.45724 33536 ft 438 kts 203°
2026-05-07 08:11 41.90038 140.44688 33961 ft 435 kts 204°
2026-05-07 08:11 41.87132 140.43635 34352 ft 432 kts 204°
2026-05-07 08:11 41.84238 140.42572 34721 ft 429 kts 204°
2026-05-07 08:12 41.81367 140.41509 35075 ft 427 kts 204°
2026-05-07 08:12 41.78508 140.40446 35403 ft 425 kts 204°
2026-05-07 08:12 41.75667 140.39387 35682 ft 424 kts 204°
2026-05-07 08:13 41.69937 140.37250 35822 ft 428 kts 204°
2026-05-07 08:13 41.64236 140.35139 35860 ft 422 kts 204°
2026-05-07 08:14 41.58626 140.33066 35849 ft 420 kts 204°
2026-05-07 08:14 41.52984 140.30980 35853 ft 420 kts 204°
2026-05-07 08:15 41.47340 140.28897 35877 ft 421 kts 204°
2026-05-07 08:15 41.41661 140.26806 35870 ft 423 kts 204°
2026-05-07 08:16 41.35974 140.24717 35875 ft 425 kts 204°
2026-05-07 08:16 41.30306 140.22640 35866 ft 426 kts 204°
2026-05-07 08:17 41.24576 140.20543 35872 ft 427 kts 204°
2026-05-07 08:17 41.18833 140.18445 35874 ft 428 kts 204°
2026-05-07 08:18 41.13096 140.16354 35873 ft 428 kts 203°
2026-05-07 08:18 41.07317 140.14333 35861 ft 428 kts 202°
2026-05-07 08:19 41.01551 140.12358 35869 ft 428 kts 202°
2026-05-07 08:19 40.95788 140.10378 35878 ft 427 kts 202°
2026-05-07 08:20 40.90038 140.08399 35870 ft 427 kts 202°
2026-05-07 08:20 40.84317 140.06431 35848 ft 427 kts 202°
2026-05-07 08:21 40.78559 140.04454 35882 ft 428 kts 202°
2026-05-07 08:21 40.73764 140.02810 35890 ft 429 kts 202°
2026-05-07 08:22 40.67968 140.00826 35888 ft 431 kts 202°
2026-05-07 08:22 40.62150 139.98840 35887 ft 432 kts 202°
2026-05-07 08:23 40.56314 139.96851 35880 ft 432 kts 202°
2026-05-07 08:23 40.50508 139.94875 35901 ft 434 kts 201°
2026-05-07 08:24 40.44728 139.92678 35904 ft 429 kts 207°
2026-05-07 08:24 40.39357 139.89443 35899 ft 422 kts 213°
2026-05-07 08:25 40.34145 139.85885 35868 ft 423 kts 213°
2026-05-07 08:25 40.28901 139.82350 35898 ft 424 kts 212°
2026-05-07 08:26 40.21023 139.77058 35904 ft 425 kts 212°
2026-05-07 08:26 40.15744 139.73519 35907 ft 426 kts 212°
2026-05-07 08:27 40.10490 139.70002 35904 ft 426 kts 212°
2026-05-07 08:27 40.05210 139.66475 35869 ft 426 kts 212°
2026-05-07 08:28 39.99918 139.63002 35899 ft 426 kts 211°
2026-05-07 08:28 39.94598 139.59556 35898 ft 426 kts 211°
2026-05-07 08:29 39.89284 139.56115 35906 ft 426 kts 211°
2026-05-07 08:29 39.84001 139.52694 35908 ft 427 kts 211°
2026-05-07 08:30 39.78679 139.49251 35906 ft 427 kts 211°
2026-05-07 08:30 39.73351 139.45810 35899 ft 427 kts 211°
2026-05-07 08:31 39.68023 139.42374 35902 ft 427 kts 211°
2026-05-07 08:31 39.62695 139.38944 35911 ft 427 kts 211°
2026-05-07 08:32 39.57380 139.35529 35912 ft 427 kts 211°
2026-05-07 08:32 39.52055 139.32114 35910 ft 427 kts 211°
2026-05-07 08:33 39.46727 139.28702 35896 ft 427 kts 211°
2026-05-07 08:33 39.41391 139.25291 35905 ft 427 kts 211°
2026-05-07 08:34 39.36054 139.21885 35914 ft 428 kts 211°
2026-05-07 08:34 39.30709 139.18479 35912 ft 428 kts 211°
2026-05-07 08:35 39.25363 139.15079 35906 ft 428 kts 211°
2026-05-07 08:35 39.20020 139.11687 35914 ft 428 kts 211°
2026-05-07 08:36 39.14692 139.08310 35915 ft 429 kts 211°
2026-05-07 08:36 39.09338 139.04922 35920 ft 429 kts 211°
2026-05-07 08:37 39.03972 139.01533 35918 ft 429 kts 211°
2026-05-07 08:37 38.98596 138.98143 35914 ft 429 kts 211°
2026-05-07 08:38 38.93241 138.94771 35886 ft 429 kts 211°
2026-05-07 08:38 38.87873 138.91398 35909 ft 429 kts 211°
2026-05-07 08:39 38.82528 138.88044 35918 ft 430 kts 211°
2026-05-07 08:39 38.77138 138.84668 35915 ft 431 kts 211°
2026-05-07 08:40 38.71727 138.81285 35918 ft 432 kts 211°
2026-05-07 08:40 38.66345 138.77925 35896 ft 432 kts 210°
2026-05-07 08:41 38.60932 138.74552 35916 ft 433 kts 210°
2026-05-07 08:41 38.55518 138.71183 35921 ft 433 kts 210°
2026-05-07 08:42 38.50085 138.67809 35923 ft 434 kts 210°
2026-05-07 08:42 38.44676 138.64455 35922 ft 434 kts 210°
2026-05-07 08:43 38.39231 138.61084 35896 ft 434 kts 210°
2026-05-07 08:43 38.33808 138.57733 35917 ft 434 kts 210°
2026-05-07 08:44 38.28370 138.54378 35922 ft 434 kts 210°
2026-05-07 08:44 38.22931 138.51028 35920 ft 434 kts 210°
2026-05-07 08:45 38.17491 138.47681 35924 ft 435 kts 210°
2026-05-07 08:45 38.12038 138.44334 35901 ft 435 kts 210°
2026-05-07 08:46 38.07201 138.39971 35935 ft 425 kts 227°
2026-05-07 08:46 38.03482 138.34180 35933 ft 423 kts 240°
2026-05-07 08:47 38.00670 138.27657 35939 ft 425 kts 241°
2026-05-07 08:47 37.97812 138.21065 35934 ft 426 kts 241°
2026-05-07 08:48 37.94920 138.14509 35934 ft 427 kts 240°
2026-05-07 08:48 37.92007 138.07939 35914 ft 428 kts 240°
2026-05-07 08:49 37.89087 138.01372 35933 ft 428 kts 240°
2026-05-07 08:49 37.86182 137.94848 35936 ft 428 kts 240°
2026-05-07 08:50 37.83254 137.88285 35933 ft 428 kts 240°
2026-05-07 08:50 37.80324 137.81729 35932 ft 428 kts 240°
2026-05-07 08:51 37.77392 137.75181 35915 ft 428 kts 240°
2026-05-07 08:51 37.74461 137.68648 35925 ft 428 kts 240°
2026-05-07 08:52 37.71515 137.62096 35934 ft 428 kts 240°
2026-05-07 08:52 37.68579 137.55580 35923 ft 428 kts 240°
2026-05-07 08:53 37.65644 137.49078 35931 ft 429 kts 240°
2026-05-07 08:53 37.62685 137.42536 35909 ft 429 kts 240°
2026-05-07 08:54 37.59711 137.35975 35925 ft 430 kts 240°
2026-05-07 08:54 37.56736 137.29426 35921 ft 431 kts 240°
2026-05-07 08:55 37.53746 137.22856 35926 ft 432 kts 240°
2026-05-07 08:55 37.50760 137.16308 35928 ft 434 kts 240°
2026-05-07 08:56 37.47750 137.09719 35932 ft 434 kts 240°
2026-05-07 08:56 37.44725 137.03113 35931 ft 435 kts 240°
2026-05-07 08:57 37.41706 136.96532 35937 ft 435 kts 240°
2026-05-07 08:57 37.38677 136.89943 35939 ft 434 kts 240°
2026-05-07 08:58 37.35666 136.83409 35908 ft 434 kts 240°
2026-05-07 08:58 37.32638 136.76848 35913 ft 433 kts 240°
2026-05-07 08:59 37.29613 136.70306 35913 ft 433 kts 240°
2026-05-07 08:59 37.26587 136.63775 35910 ft 433 kts 240°
2026-05-07 09:00 37.23553 136.57241 35915 ft 432 kts 239°
2026-05-07 09:00 37.20524 136.50730 35914 ft 432 kts 239°
2026-05-07 09:01 37.17485 136.44211 35906 ft 432 kts 239°
2026-05-07 09:01 37.14445 136.37704 35911 ft 433 kts 239°
2026-05-07 09:02 37.11392 136.31179 35910 ft 434 kts 239°
2026-05-07 09:02 37.08337 136.24663 35911 ft 434 kts 239°
2026-05-07 09:03 37.05293 136.18184 35912 ft 434 kts 239°
2026-05-07 09:03 37.02225 136.11664 35913 ft 434 kts 239°
2026-05-07 09:04 36.99151 136.05147 35907 ft 434 kts 239°
2026-05-07 09:04 36.96075 135.98643 35909 ft 434 kts 239°
2026-05-07 09:05 36.92997 135.92148 35910 ft 434 kts 239°
2026-05-07 09:05 36.89917 135.85662 35909 ft 434 kts 239°
2026-05-07 09:06 36.86836 135.79182 35913 ft 433 kts 239°
2026-05-07 09:06 36.83776 135.72760 35912 ft 433 kts 239°
2026-05-07 09:07 36.80690 135.66295 35901 ft 433 kts 239°
2026-05-07 09:07 36.78121 135.60922 35908 ft 433 kts 239°
2026-05-07 09:08 36.75027 135.54465 35910 ft 433 kts 239°
2026-05-07 09:08 36.71931 135.48014 35920 ft 434 kts 239°
2026-05-07 09:09 36.68822 135.41550 35912 ft 434 kts 239°
2026-05-07 09:09 36.65728 135.35128 35913 ft 434 kts 239°
2026-05-07 09:10 36.62616 135.28682 35913 ft 434 kts 239°
2026-05-07 09:10 36.59495 135.22230 35914 ft 435 kts 239°
2026-05-07 09:11 36.56373 135.15787 35915 ft 435 kts 239°
2026-05-07 09:11 36.53240 135.09335 35915 ft 435 kts 239°
2026-05-07 09:12 36.50106 135.02892 35907 ft 435 kts 239°
2026-05-07 09:12 36.46971 134.96461 35914 ft 435 kts 239°
2026-05-07 09:13 36.43851 134.90072 35915 ft 436 kts 239°
2026-05-07 09:13 36.40707 134.83645 35918 ft 436 kts 239°
2026-05-07 09:14 36.37552 134.77209 35915 ft 436 kts 239°
2026-05-07 09:14 36.34393 134.70776 35918 ft 436 kts 239°
2026-05-07 09:15 36.31229 134.64346 35917 ft 436 kts 239°
2026-05-07 09:15 36.28067 134.57930 35920 ft 436 kts 239°
2026-05-07 09:16 36.24895 134.51505 35920 ft 436 kts 239°
2026-05-07 09:16 36.21738 134.45125 35910 ft 436 kts 239°
2026-05-07 09:17 36.18562 134.38717 35916 ft 436 kts 239°
2026-05-07 09:17 36.15382 134.32309 35915 ft 436 kts 238°
2026-05-07 09:18 36.12198 134.25905 35912 ft 437 kts 238°
2026-05-07 09:18 36.09034 134.19552 35919 ft 437 kts 238°
2026-05-07 09:19 36.05857 134.13185 35916 ft 437 kts 238°
2026-05-07 09:19 36.02676 134.06822 35917 ft 437 kts 238°
2026-05-07 09:20 35.99474 134.00428 35916 ft 438 kts 238°
2026-05-07 09:20 35.96260 133.94023 35912 ft 438 kts 238°
2026-05-07 09:21 35.93045 133.87645 35915 ft 438 kts 238°
2026-05-07 09:21 35.89819 133.81267 35912 ft 438 kts 238°
2026-05-07 09:22 35.86591 133.74892 35915 ft 438 kts 238°
2026-05-07 09:22 35.83365 133.68530 35908 ft 438 kts 238°
2026-05-07 09:23 35.80130 133.62161 35929 ft 438 kts 238°
2026-05-07 09:23 35.76891 133.55798 35916 ft 438 kts 238°
2026-05-07 09:24 35.73672 133.49484 35906 ft 438 kts 238°
2026-05-07 09:24 35.70436 133.43149 35912 ft 438 kts 238°
2026-05-07 09:25 35.67182 133.36790 35917 ft 438 kts 238°
2026-05-07 09:25 35.63936 133.30457 35906 ft 438 kts 238°
2026-05-07 09:26 35.60674 133.24105 35913 ft 438 kts 238°
2026-05-07 09:26 35.57413 133.17765 35917 ft 439 kts 238°
2026-05-07 09:27 35.53863 133.11737 35894 ft 440 kts 227°
2026-05-07 09:28 35.46501 133.04936 35896 ft 447 kts 211°
2026-05-07 09:28 35.40970 133.01400 35886 ft 448 kts 211°
2026-05-07 09:29 35.35450 132.97860 35889 ft 448 kts 211°
2026-05-07 09:29 35.29930 132.94269 35885 ft 449 kts 211°
2026-05-07 09:30 35.24417 132.90674 35886 ft 448 kts 211°
2026-05-07 09:30 35.18908 132.87091 35894 ft 448 kts 211°
2026-05-07 09:31 35.13453 132.83514 35886 ft 447 kts 212°
2026-05-07 09:31 35.07954 132.79874 35912 ft 447 kts 212°
2026-05-07 09:32 35.02523 132.76292 35912 ft 446 kts 212°
2026-05-07 09:32 34.97038 132.72685 35905 ft 446 kts 212°
2026-05-07 09:33 34.91570 132.69092 35913 ft 446 kts 212°
2026-05-07 09:33 34.86129 132.65521 35913 ft 446 kts 212°
2026-05-07 09:34 34.80661 132.61936 35898 ft 447 kts 212°
2026-05-07 09:34 34.75171 132.58343 35908 ft 447 kts 212°
2026-05-07 09:35 34.69712 132.54775 35911 ft 448 kts 212°
2026-05-07 09:35 34.64191 132.51172 35905 ft 448 kts 212°
2026-05-07 09:36 34.58724 132.47609 35906 ft 448 kts 212°
2026-05-07 09:36 34.53228 132.44034 35898 ft 448 kts 212°
2026-05-07 09:37 34.47734 132.40463 35920 ft 449 kts 212°
2026-05-07 09:37 34.42218 132.36885 35914 ft 449 kts 212°
2026-05-07 09:38 34.36714 132.33318 35903 ft 449 kts 212°
2026-05-07 09:38 34.31203 132.29747 35911 ft 449 kts 212°
2026-05-07 09:39 34.25690 132.26179 35917 ft 449 kts 212°
2026-05-07 09:39 34.20191 132.22625 35910 ft 450 kts 211°
2026-05-07 09:40 34.14652 132.19050 35944 ft 452 kts 212°
2026-05-07 09:40 34.09093 132.15470 35895 ft 453 kts 211°
2026-05-07 09:41 34.03353 132.12294 35908 ft 456 kts 207°
2026-05-07 09:41 33.97493 132.09290 35916 ft 457 kts 207°
2026-05-07 09:42 33.91677 132.06272 35900 ft 458 kts 207°
2026-05-07 09:42 33.85812 132.03220 35916 ft 459 kts 207°
2026-05-07 09:43 33.79937 132.00168 35913 ft 460 kts 207°
2026-05-07 09:43 33.74065 131.97124 35919 ft 460 kts 207°
2026-05-07 09:44 33.68215 131.94094 35913 ft 460 kts 207°
2026-05-07 09:44 33.62326 131.91047 35912 ft 460 kts 207°
2026-05-07 09:45 33.56442 131.88008 35908 ft 460 kts 207°
2026-05-07 09:45 33.50568 131.84977 35912 ft 460 kts 207°
2026-05-07 09:46 33.44676 131.81941 35895 ft 459 kts 208°
2026-05-07 09:46 33.38844 131.78942 35911 ft 459 kts 208°
2026-05-07 09:47 33.32989 131.75934 35923 ft 458 kts 208°
2026-05-07 09:47 33.27118 131.72922 35895 ft 457 kts 208°
2026-05-07 09:48 33.21327 131.69804 35917 ft 454 kts 213°
2026-05-07 09:48 33.16010 131.65915 35926 ft 451 kts 217°
2026-05-07 09:49 33.10691 131.61925 35917 ft 452 kts 216°
2026-05-07 09:49 33.05355 131.57962 35926 ft 452 kts 216°
2026-05-07 09:50 33.00907 131.54675 35925 ft 452 kts 216°
2026-05-07 09:50 32.94639 131.50050 35911 ft 453 kts 216°
2026-05-07 09:51 32.89266 131.46089 35927 ft 454 kts 216°
2026-05-07 09:51 32.83913 131.42149 35942 ft 456 kts 216°
2026-05-07 09:52 32.79391 131.38812 35930 ft 457 kts 216°
2026-05-07 09:52 32.74014 131.34767 35955 ft 458 kts 216°
2026-05-07 09:53 32.68626 131.30711 35942 ft 458 kts 216°
2026-05-07 09:53 32.63264 131.26693 35947 ft 457 kts 216°
2026-05-07 09:54 32.57881 131.22670 35935 ft 458 kts 216°
2026-05-07 09:54 32.52470 131.18653 35958 ft 458 kts 216°
2026-05-07 09:55 32.47072 131.14652 35954 ft 456 kts 217°
2026-05-07 09:55 32.41682 131.10659 35952 ft 456 kts 217°
2026-05-07 09:56 32.36312 131.06730 35952 ft 456 kts 217°
2026-05-07 09:56 32.30892 131.02805 35939 ft 457 kts 217°
2026-05-07 09:57 32.25460 130.98869 35955 ft 457 kts 217°
2026-05-07 09:57 32.20044 130.94943 35954 ft 458 kts 217°
2026-05-07 09:58 32.14609 130.91009 35957 ft 458 kts 217°
2026-05-07 09:58 32.09209 130.87088 35954 ft 458 kts 217°
2026-05-07 09:59 32.03785 130.83116 35949 ft 458 kts 217°
2026-05-07 09:59 31.98374 130.79157 35936 ft 457 kts 217°
2026-05-07 10:00 31.92967 130.75212 35940 ft 457 kts 217°
2026-05-07 10:00 31.87547 130.71264 35933 ft 457 kts 217°
2026-05-07 10:01 31.82173 130.67354 35939 ft 456 kts 217°
2026-05-07 10:01 31.76770 130.63429 35937 ft 456 kts 217°
2026-05-07 10:02 31.71535 130.59282 35938 ft 450 kts 225°
2026-05-07 10:02 31.67041 130.54225 35943 ft 445 kts 232°
2026-05-07 10:03 31.63231 130.48562 35944 ft 442 kts 237°
2026-05-07 10:03 31.59501 130.42811 35951 ft 443 kts 236°
2026-05-07 10:04 31.55771 130.37107 35959 ft 443 kts 236°
2026-05-07 10:04 31.52011 130.31395 35962 ft 442 kts 236°
2026-05-07 10:05 31.48248 130.25694 35962 ft 442 kts 236°
2026-05-07 10:05 31.44479 130.19991 35961 ft 442 kts 235°
2026-05-07 10:06 31.40717 130.14308 35938 ft 440 kts 236°
2026-05-07 10:06 31.36986 130.08678 35951 ft 439 kts 236°
2026-05-07 10:07 31.33239 130.03031 35955 ft 439 kts 236°
2026-05-07 10:07 31.29486 129.97383 35933 ft 439 kts 235°
2026-05-07 10:08 31.25751 129.91779 35959 ft 439 kts 235°
2026-05-07 10:08 31.21990 129.86148 35963 ft 440 kts 235°
2026-05-07 10:09 31.18215 129.80503 35972 ft 440 kts 235°
2026-05-07 10:09 31.14440 129.74864 35937 ft 441 kts 234°
2026-05-07 10:10 31.10655 129.69217 35965 ft 443 kts 234°
2026-05-07 10:10 31.06849 129.63548 35961 ft 444 kts 234°
2026-05-07 10:11 31.03031 129.57870 35971 ft 445 kts 234°
2026-05-07 10:11 30.99224 129.52215 35964 ft 447 kts 234°
2026-05-07 10:12 30.95371 129.46500 35961 ft 449 kts 234°
2026-05-07 10:12 30.91493 129.40758 35961 ft 450 kts 234°
2026-05-07 10:13 30.87620 129.35030 35955 ft 451 kts 234°
2026-05-07 10:13 30.83725 129.29278 35960 ft 451 kts 234°
2026-05-07 10:14 30.79863 129.23583 35961 ft 451 kts 234°
2026-05-07 10:14 30.75992 129.17855 35966 ft 450 kts 235°
2026-05-07 10:15 30.72184 129.12062 35960 ft 449 kts 236°
2026-05-07 10:15 30.68397 129.06271 35961 ft 449 kts 236°
2026-05-07 10:16 30.64611 129.00507 35966 ft 448 kts 236°
2026-05-07 10:16 30.60810 128.94740 35964 ft 448 kts 236°
2026-05-07 10:17 30.57011 128.88989 35971 ft 448 kts 236°
2026-05-07 10:17 30.53240 128.83287 35966 ft 448 kts 235°
2026-05-07 10:18 30.49443 128.77556 35968 ft 448 kts 235°
2026-05-07 10:18 30.45633 128.71812 35970 ft 449 kts 235°
2026-05-07 10:19 30.41824 128.66079 35964 ft 448 kts 235°
2026-05-07 10:19 30.38011 128.60346 35966 ft 449 kts 235°
2026-05-07 10:20 30.34190 128.54610 35971 ft 449 kts 235°
2026-05-07 10:20 30.30367 128.48880 35964 ft 450 kts 235°
2026-05-07 10:21 30.26546 128.43162 35971 ft 450 kts 235°
2026-05-07 10:21 30.22734 128.37463 35972 ft 450 kts 235°
2026-05-07 10:22 30.18901 128.31743 35972 ft 450 kts 235°
2026-05-07 10:22 30.15069 128.26031 35973 ft 449 kts 235°
2026-05-07 10:23 30.11231 128.20320 35970 ft 449 kts 235°
2026-05-07 10:23 30.07392 128.14614 35973 ft 450 kts 235°
2026-05-07 10:24 30.03535 128.08890 35977 ft 451 kts 235°
2026-05-07 10:24 29.99705 128.03214 35950 ft 451 kts 236°
2026-05-07 10:25 29.95847 127.97505 35968 ft 451 kts 236°
2026-05-07 10:25 29.91989 127.91801 35983 ft 451 kts 235°
2026-05-07 10:26 29.88113 127.86080 35977 ft 450 kts 235°
2026-05-07 10:26 29.84225 127.80490 35962 ft 451 kts 233°
2026-05-07 10:27 29.80105 127.75026 35975 ft 451 kts 232°
2026-05-07 10:27 29.75990 127.69589 35988 ft 450 kts 233°
2026-05-07 10:28 29.71892 127.64121 35978 ft 450 kts 233°
2026-05-07 10:28 29.67801 127.58648 35969 ft 450 kts 233°
2026-05-07 10:29 29.63711 127.53183 35981 ft 450 kts 233°
2026-05-07 10:29 29.59622 127.47730 35981 ft 450 kts 233°
2026-05-07 10:30 29.53712 127.39413 35965 ft 449 kts 236°
2026-05-07 10:30 29.49862 127.33749 35988 ft 449 kts 236°
2026-05-07 10:31 29.45992 127.28106 35977 ft 450 kts 236°
2026-05-07 10:31 29.42104 127.22483 35988 ft 450 kts 236°
2026-05-07 10:32 29.38227 127.16894 35961 ft 450 kts 236°
2026-05-07 10:32 29.34308 127.11254 35986 ft 449 kts 236°
2026-05-07 10:33 29.30437 127.05686 35988 ft 450 kts 236°
2026-05-07 10:33 29.26537 127.00084 35990 ft 450 kts 236°
2026-05-07 10:34 29.22625 126.94473 35991 ft 450 kts 236°
2026-05-07 10:34 29.18714 126.88871 35976 ft 450 kts 237°
2026-05-07 10:35 29.14795 126.83264 35982 ft 450 kts 237°
2026-05-07 10:35 29.10879 126.77670 35985 ft 451 kts 237°
2026-05-07 10:36 29.07623 126.73025 35998 ft 450 kts 237°
2026-05-07 10:36 29.03698 126.67433 35976 ft 450 kts 237°
2026-05-07 10:37 28.99788 126.61865 35983 ft 449 kts 237°
2026-05-07 10:37 28.95863 126.56311 35987 ft 449 kts 237°
2026-05-07 10:38 28.91848 126.50879 35991 ft 450 kts 236°
2026-05-07 10:38 28.87784 126.45443 35979 ft 449 kts 236°
2026-05-07 10:39 28.83757 126.40034 35980 ft 449 kts 236°
2026-05-07 10:39 28.79716 126.34595 35983 ft 449 kts 236°
2026-05-07 10:40 28.75680 126.29167 35993 ft 449 kts 236°
2026-05-07 10:40 28.71643 126.23747 35988 ft 449 kts 236°
2026-05-07 10:41 28.67595 126.18317 35980 ft 449 kts 236°
2026-05-07 10:41 28.63555 126.12906 35985 ft 449 kts 236°
2026-05-07 10:42 28.59604 126.07415 35978 ft 447 kts 237°
2026-05-07 10:42 28.55712 126.01882 35985 ft 447 kts 237°
2026-05-07 10:43 28.51845 125.96404 35986 ft 447 kts 237°
2026-05-07 10:43 28.47933 125.90893 35985 ft 447 kts 237°
2026-05-07 10:44 28.44023 125.85402 35985 ft 447 kts 237°
2026-05-07 10:44 28.40099 125.79900 35971 ft 447 kts 237°
2026-05-07 10:45 28.36174 125.74403 35978 ft 448 kts 237°
2026-05-07 10:45 28.32235 125.68894 35985 ft 449 kts 237°
2026-05-07 10:46 28.28326 125.63433 35983 ft 449 kts 237°
2026-05-07 10:46 28.24382 125.57931 35981 ft 449 kts 237°
2026-05-07 10:47 28.20432 125.52428 35970 ft 450 kts 237°
2026-05-07 10:47 28.16468 125.46912 35989 ft 451 kts 237°
2026-05-07 10:48 28.12502 125.41400 35986 ft 451 kts 237°
2026-05-07 10:48 28.08533 125.35892 35984 ft 452 kts 237°
2026-05-07 10:49 28.04573 125.30402 35966 ft 452 kts 237°
2026-05-07 10:49 28.00589 125.24887 35982 ft 453 kts 237°
2026-05-07 10:50 27.96607 125.19381 35986 ft 454 kts 237°
2026-05-07 10:50 27.92593 125.13838 35976 ft 455 kts 237°
2026-05-07 10:51 27.88575 125.08298 35959 ft 455 kts 237°
2026-05-07 10:51 27.84570 125.02783 35973 ft 456 kts 237°
2026-05-07 10:52 27.80536 124.97234 35980 ft 457 kts 237°
2026-05-07 10:52 27.76493 124.91681 35977 ft 457 kts 237°
2026-05-07 10:53 27.72453 124.86138 35977 ft 457 kts 237°
2026-05-07 10:53 27.68410 124.80598 35964 ft 457 kts 237°
2026-05-07 10:54 27.64357 124.75050 35979 ft 457 kts 237°
2026-05-07 10:54 27.60331 124.69545 35972 ft 458 kts 237°
2026-05-07 10:55 27.56273 124.63988 35976 ft 458 kts 237°
2026-05-07 10:55 27.52248 124.58478 35955 ft 458 kts 236°
2026-05-07 10:56 27.48192 124.52935 35979 ft 458 kts 236°
2026-05-07 10:56 27.44136 124.47398 35980 ft 458 kts 236°
2026-05-07 10:57 27.40076 124.41864 35958 ft 458 kts 236°
2026-05-07 10:57 27.36009 124.36327 35977 ft 458 kts 236°
2026-05-07 10:58 27.31942 124.30797 35972 ft 458 kts 236°
2026-05-07 10:58 27.27899 124.25306 35967 ft 459 kts 236°
2026-05-07 10:59 27.23811 124.19763 35970 ft 459 kts 236°
2026-05-07 10:59 27.19732 124.14237 35967 ft 460 kts 236°
2026-05-07 11:00 27.15651 124.08716 35954 ft 460 kts 236°
2026-05-07 11:00 27.11559 124.03185 35963 ft 461 kts 236°
2026-05-07 11:01 27.07452 123.97657 35970 ft 462 kts 236°
2026-05-07 11:01 27.03296 123.92142 35970 ft 463 kts 235°
2026-05-07 11:02 26.99151 123.86658 35964 ft 463 kts 235°
2026-05-07 11:02 26.94985 123.81145 35951 ft 462 kts 235°
2026-05-07 11:03 26.90827 123.75643 35958 ft 463 kts 235°
2026-05-07 11:03 26.86667 123.70143 35964 ft 463 kts 235°
2026-05-07 11:04 26.82490 123.64629 35960 ft 464 kts 235°
2026-05-07 11:04 26.78311 123.59120 35957 ft 464 kts 235°
2026-05-07 11:05 26.74159 123.53653 35956 ft 464 kts 235°
2026-05-07 11:05 26.69982 123.48158 35955 ft 464 kts 235°
2026-05-07 11:06 26.65803 123.42668 35955 ft 463 kts 235°
2026-05-07 11:06 26.61617 123.37172 35949 ft 463 kts 235°
2026-05-07 11:07 26.57437 123.31686 35957 ft 463 kts 235°
2026-05-07 11:07 26.53276 123.26230 35955 ft 464 kts 235°
2026-05-07 11:08 26.49084 123.20741 35959 ft 465 kts 235°
2026-05-07 11:08 26.44882 123.15245 35958 ft 465 kts 235°
2026-05-07 11:09 26.40677 123.09752 35942 ft 466 kts 234°
2026-05-07 11:09 26.36467 123.04259 35954 ft 466 kts 234°
2026-05-07 11:10 26.32234 122.98745 35955 ft 467 kts 234°
2026-05-07 11:10 26.28014 122.93274 35953 ft 468 kts 234°
2026-05-07 11:11 26.23761 122.87772 35955 ft 469 kts 234°
2026-05-07 11:11 26.19497 122.82258 35947 ft 469 kts 234°
2026-05-07 11:12 26.15233 122.76750 35955 ft 470 kts 234°
2026-05-07 11:12 26.10953 122.71227 35951 ft 470 kts 234°
2026-05-07 11:13 26.06700 122.65746 36020 ft 472 kts 234°
2026-05-07 11:13 26.04544 122.62970 36317 ft 472 kts 234°
2026-05-07 11:13 26.02405 122.60219 36686 ft 469 kts 234°
2026-05-07 11:14 26.00269 122.57473 37062 ft 467 kts 235°
2026-05-07 11:14 25.98153 122.54752 37404 ft 466 kts 235°
2026-05-07 11:14 25.96035 122.52030 37689 ft 465 kts 236°
2026-05-07 11:14 25.93915 122.49307 37872 ft 466 kts 236°
2026-05-07 11:15 25.89669 122.43838 37933 ft 467 kts 236°
2026-05-07 11:15 25.85439 122.38391 37945 ft 464 kts 236°
2026-05-07 11:16 25.81222 122.32966 37949 ft 462 kts 236°
2026-05-07 11:16 25.77033 122.27582 37946 ft 461 kts 236°
2026-05-07 11:17 25.72857 122.22220 37947 ft 461 kts 236°
2026-05-07 11:17 25.68659 122.16837 37948 ft 462 kts 236°
2026-05-07 11:18 25.64446 122.11441 37948 ft 463 kts 236°
2026-05-07 11:18 25.60215 122.06033 37958 ft 465 kts 236°
2026-05-07 11:19 25.55954 122.00615 37954 ft 466 kts 236°
2026-05-07 11:19 25.51714 121.95228 37928 ft 467 kts 236°
2026-05-07 11:20 25.47439 121.89799 37931 ft 468 kts 236°
2026-05-07 11:20 25.43165 121.84378 37912 ft 468 kts 235°
2026-05-07 11:21 25.38886 121.78956 37925 ft 468 kts 235°
2026-05-07 11:21 25.35325 121.74449 37933 ft 467 kts 235°
2026-05-07 11:22 25.31040 121.69031 37933 ft 467 kts 235°
2026-05-07 11:22 25.26059 121.62740 37933 ft 467 kts 235°
2026-05-07 11:23 25.22506 121.58257 37915 ft 467 kts 235°
2026-05-07 11:23 25.18225 121.52863 37937 ft 467 kts 235°
2026-05-07 11:24 25.13980 121.47431 37937 ft 467 kts 235°
2026-05-07 11:24 25.09772 121.41956 37940 ft 467 kts 236°
2026-05-07 11:25 25.05547 121.36473 37939 ft 468 kts 235°
2026-05-07 11:25 25.01314 121.31001 37922 ft 469 kts 235°
2026-05-07 11:26 24.97074 121.25532 37942 ft 469 kts 235°
2026-05-07 11:26 24.92848 121.20085 37944 ft 470 kts 234°
2026-05-07 11:27 24.88593 121.14608 37949 ft 471 kts 234°
2026-05-07 11:27 24.84333 121.09129 37942 ft 471 kts 234°
2026-05-07 11:28 24.80067 121.03640 37952 ft 471 kts 234°
2026-05-07 11:28 24.75816 120.98161 37956 ft 470 kts 234°
2026-05-07 11:29 24.71562 120.92682 37947 ft 470 kts 234°
2026-05-07 11:29 24.67315 120.87222 37940 ft 470 kts 234°
2026-05-07 11:30 24.63060 120.81757 37953 ft 469 kts 234°
2026-05-07 11:30 24.58815 120.76310 37960 ft 469 kts 234°
2026-05-07 11:31 24.54516 120.70941 37953 ft 472 kts 232°
2026-05-07 11:31 24.49944 120.65741 37960 ft 474 kts 231°
2026-05-07 11:32 24.43028 120.57946 37962 ft 475 kts 231°
2026-05-07 11:33 24.38426 120.52726 37949 ft 475 kts 231°
2026-05-07 11:33 24.33829 120.47510 37963 ft 476 kts 231°
2026-05-07 11:34 24.29226 120.42294 37959 ft 476 kts 231°
2026-05-07 11:34 24.24629 120.37091 37946 ft 477 kts 231°
2026-05-07 11:35 24.20026 120.31836 37954 ft 477 kts 231°
2026-05-07 11:35 24.15438 120.26584 37934 ft 478 kts 231°
2026-05-07 11:36 24.10814 120.21335 37942 ft 479 kts 231°
2026-05-07 11:36 24.06183 120.16077 37937 ft 480 kts 231°
2026-05-07 11:37 24.01546 120.10814 37932 ft 480 kts 231°
2026-05-07 11:37 23.96889 120.05553 37936 ft 481 kts 231°
2026-05-07 11:38 23.92221 120.00315 37933 ft 481 kts 231°
2026-05-07 11:38 23.87577 119.95107 37936 ft 482 kts 231°
2026-05-07 11:39 23.82866 119.89825 37933 ft 482 kts 231°
2026-05-07 11:39 23.78213 119.84612 37935 ft 482 kts 231°
2026-05-07 11:40 23.73526 119.79366 37944 ft 482 kts 231°
2026-05-07 11:40 23.68848 119.74136 37937 ft 481 kts 231°
2026-05-07 11:41 23.64161 119.68901 37939 ft 481 kts 231°
2026-05-07 11:41 23.59598 119.63575 37938 ft 477 kts 236°
2026-05-07 11:42 23.55895 119.57650 37950 ft 471 kts 243°
2026-05-07 11:42 23.52433 119.51570 37935 ft 472 kts 243°
2026-05-07 11:43 23.48971 119.45539 37933 ft 472 kts 243°
2026-05-07 11:43 23.45465 119.39488 37938 ft 472 kts 242°
2026-05-07 11:44 23.41950 119.33444 37932 ft 473 kts 242°
2026-05-07 11:44 23.38421 119.27383 37933 ft 474 kts 242°
2026-05-07 11:45 23.34885 119.21315 37938 ft 473 kts 242°
2026-05-07 11:45 23.31372 119.15295 37929 ft 473 kts 242°
2026-05-07 11:46 23.27844 119.09255 37931 ft 473 kts 242°
2026-05-07 11:46 23.24312 119.03215 37932 ft 472 kts 242°
2026-05-07 11:47 23.20782 118.97185 37935 ft 472 kts 242°
2026-05-07 11:47 23.17268 118.91190 37935 ft 472 kts 242°
2026-05-07 11:48 23.13735 118.85168 37935 ft 472 kts 242°
2026-05-07 11:48 23.10203 118.79156 37933 ft 472 kts 242°
2026-05-07 11:49 23.06665 118.73141 37939 ft 472 kts 242°
2026-05-07 11:49 23.03121 118.67121 37942 ft 474 kts 242°
2026-05-07 11:50 22.99583 118.61120 37926 ft 475 kts 242°
2026-05-07 11:50 22.96022 118.55086 37929 ft 475 kts 242°
2026-05-07 11:51 22.92437 118.49037 37951 ft 476 kts 242°
2026-05-07 11:51 22.88845 118.43003 37949 ft 476 kts 242°
2026-05-07 11:52 22.85249 118.36966 37937 ft 476 kts 241°
2026-05-07 11:52 22.81654 118.30933 37936 ft 477 kts 242°
2026-05-07 11:53 22.78070 118.24924 37939 ft 477 kts 242°
2026-05-07 11:53 22.74466 118.18890 37942 ft 477 kts 242°
2026-05-07 11:54 22.70857 118.12855 37940 ft 476 kts 242°
2026-05-07 11:54 22.67255 118.06836 37938 ft 476 kts 242°
2026-05-07 11:55 22.63676 118.00863 37921 ft 474 kts 242°
2026-05-07 11:55 22.60088 117.94883 37926 ft 472 kts 242°
2026-05-07 11:56 22.56537 117.88926 37935 ft 470 kts 242°
2026-05-07 11:56 22.53000 117.82977 37949 ft 469 kts 242°
2026-05-07 11:57 22.49489 117.77081 37945 ft 468 kts 242°
2026-05-07 11:57 22.45962 117.71169 37941 ft 468 kts 242°
2026-05-07 11:58 22.42421 117.65240 37929 ft 470 kts 242°
2026-05-07 11:58 22.38859 117.59283 37941 ft 473 kts 242°
2026-05-07 11:59 22.35368 117.53246 37927 ft 471 kts 248°
2026-05-07 11:59 22.33388 117.46630 37949 ft 463 kts 263°
2026-05-07 12:00 22.32991 117.39736 37936 ft 458 kts 272°
2026-05-07 12:00 22.32940 117.32857 37940 ft 457 kts 272°
2026-05-07 12:01 22.32862 117.26001 37936 ft 455 kts 272°
2026-05-07 12:01 22.32748 117.19170 37930 ft 454 kts 272°
2026-05-07 12:02 22.32619 117.12401 37933 ft 453 kts 272°
2026-05-07 12:02 22.32485 117.05598 37922 ft 452 kts 272°
2026-05-07 12:03 22.32349 116.98818 37931 ft 451 kts 271°
2026-05-07 12:03 22.32212 116.92041 37922 ft 450 kts 271°
2026-05-07 12:04 22.32072 116.85277 37934 ft 450 kts 271°
2026-05-07 12:04 22.31930 116.78545 37911 ft 451 kts 271°
2026-05-07 12:05 22.31784 116.71754 37929 ft 452 kts 271°
2026-05-07 12:05 22.31661 116.66103 37936 ft 453 kts 271°
2026-05-07 12:06 22.31484 116.58217 37431 ft 451 kts 271°
2026-05-07 12:06 22.31433 116.55959 37127 ft 453 kts 271°
2026-05-07 12:06 22.31356 116.52530 36581 ft 458 kts 271°
2026-05-07 12:06 22.31278 116.49072 36032 ft 463 kts 271°
2026-05-07 12:07 22.31197 116.45584 35521 ft 466 kts 271°
2026-05-07 12:07 22.31114 116.42052 35011 ft 470 kts 270°
2026-05-07 12:07 22.31030 116.38503 34523 ft 472 kts 270°
2026-05-07 12:07 22.30946 116.34983 34039 ft 475 kts 270°
2026-05-07 12:08 22.30859 116.31403 33485 ft 478 kts 270°
2026-05-07 12:08 22.30771 116.27800 33011 ft 480 kts 270°
2026-05-07 12:08 22.30682 116.24181 32648 ft 479 kts 270°
2026-05-07 12:08 22.30594 116.20629 32332 ft 477 kts 270°
2026-05-07 12:09 22.30503 116.17040 31904 ft 475 kts 269°
2026-05-07 12:09 22.30413 116.13437 31312 ft 480 kts 269°
2026-05-07 12:09 22.30322 116.09871 30832 ft 482 kts 269°
2026-05-07 12:09 22.30230 116.06254 30435 ft 481 kts 269°
2026-05-07 12:10 22.30136 116.02654 30156 ft 478 kts 269°
2026-05-07 12:10 22.30042 115.99068 29892 ft 474 kts 269°
2026-05-07 12:10 22.29950 115.95552 29599 ft 471 kts 269°
2026-05-07 12:10 22.29856 115.92017 29272 ft 468 kts 269°
2026-05-07 12:11 22.29762 115.88503 28943 ft 466 kts 269°
2026-05-07 12:11 22.29668 115.85005 28642 ft 464 kts 269°
2026-05-07 12:11 22.29575 115.81522 28341 ft 462 kts 269°
2026-05-07 12:11 22.29494 115.78039 27677 ft 461 kts 269°
2026-05-07 12:12 22.29423 115.74631 27123 ft 455 kts 269°
2026-05-07 12:12 22.29351 115.71249 26651 ft 448 kts 269°
2026-05-07 12:12 22.29275 115.67906 25965 ft 446 kts 269°
2026-05-07 12:12 22.29188 115.64548 25255 ft 445 kts 269°
2026-05-07 12:13 22.29093 115.61215 24682 ft 440 kts 269°
2026-05-07 12:13 22.28999 115.57955 24143 ft 435 kts 269°
2026-05-07 12:13 22.28905 115.54699 23615 ft 430 kts 269°
2026-05-07 12:13 22.28813 115.51487 23018 ft 425 kts 269°
2026-05-07 12:14 22.28722 115.48304 22484 ft 420 kts 269°
2026-05-07 12:14 22.28633 115.45168 21953 ft 414 kts 269°
2026-05-07 12:14 22.28545 115.42118 21455 ft 409 kts 269°
2026-05-07 12:14 22.28457 115.39050 20962 ft 409 kts 268°
2026-05-07 12:15 22.28367 115.35972 20472 ft 410 kts 268°
2026-05-07 12:15 22.28276 115.32876 19973 ft 411 kts 268°
2026-05-07 12:15 22.28184 115.29804 19467 ft 409 kts 268°
2026-05-07 12:15 22.28090 115.26764 18975 ft 407 kts 268°
2026-05-07 12:16 22.27996 115.23710 18479 ft 406 kts 268°
2026-05-07 12:16 22.27902 115.20663 17946 ft 405 kts 268°
2026-05-07 12:16 22.27807 115.17634 17415 ft 400 kts 268°
2026-05-07 12:16 22.27713 115.14642 16913 ft 395 kts 268°
2026-05-07 12:17 22.27620 115.11702 16428 ft 389 kts 268°
2026-05-07 12:17 22.27529 115.08826 15964 ft 385 kts 268°
2026-05-07 12:17 22.27437 115.05921 15497 ft 382 kts 268°
2026-05-07 12:17 22.27347 115.03092 15041 ft 379 kts 268°
2026-05-07 12:18 22.27255 115.00250 14582 ft 377 kts 268°
2026-05-07 12:18 22.27164 114.97417 14119 ft 375 kts 268°
2026-05-07 12:18 22.27060 114.94643 13623 ft 373 kts 265°
2026-05-07 12:18 22.26559 114.91880 13171 ft 376 kts 252°
2026-05-07 12:19 22.25518 114.89296 12856 ft 376 kts 243°
2026-05-07 12:19 22.24122 114.86909 12608 ft 374 kts 236°
2026-05-07 12:19 22.22620 114.84618 12361 ft 372 kts 236°
2026-05-07 12:19 22.21147 114.82366 12103 ft 370 kts 236°
2026-05-07 12:20 22.19667 114.80097 11828 ft 369 kts 236°
2026-05-07 12:20 22.18195 114.77834 11571 ft 368 kts 236°
2026-05-07 12:20 22.16728 114.75571 11327 ft 366 kts 236°
2026-05-07 12:20 22.15266 114.73314 11169 ft 361 kts 236°
2026-05-07 12:21 22.13856 114.71135 11081 ft 343 kts 236°
2026-05-07 12:21 22.12542 114.69105 10949 ft 323 kts 236°
2026-05-07 12:21 22.11294 114.67177 10798 ft 303 kts 236°
2026-05-07 12:21 22.10113 114.65351 10568 ft 291 kts 236°
2026-05-07 12:22 22.08967 114.63580 10406 ft 284 kts 236°
2026-05-07 12:22 22.07866 114.61877 10222 ft 278 kts 236°
2026-05-07 12:22 22.06766 114.60178 9982 ft 274 kts 236°
2026-05-07 12:22 22.05683 114.58493 9685 ft 270 kts 238°
2026-05-07 12:23 22.05009 114.56624 9156 ft 270 kts 261°
2026-05-07 12:23 22.04808 114.54601 8782 ft 272 kts 265°
2026-05-07 12:23 22.04685 114.52589 8486 ft 270 kts 266°
2026-05-07 12:23 22.04568 114.50561 8182 ft 268 kts 266°
2026-05-07 12:24 22.04458 114.48581 8086 ft 260 kts 266°
2026-05-07 12:24 22.04354 114.46665 8038 ft 261 kts 266°
2026-05-07 12:24 22.04248 114.44691 7987 ft 268 kts 266°
2026-05-07 12:24 22.04140 114.42658 7797 ft 272 kts 266°
2026-05-07 12:25 22.04032 114.40622 7620 ft 270 kts 266°
2026-05-07 12:25 22.03925 114.38614 7446 ft 267 kts 266°
2026-05-07 12:25 22.03821 114.36643 7272 ft 264 kts 266°
2026-05-07 12:25 22.03717 114.34668 7103 ft 262 kts 266°
2026-05-07 12:26 22.03614 114.32714 6946 ft 260 kts 266°
2026-05-07 12:26 22.03514 114.30794 6819 ft 259 kts 266°
2026-05-07 12:26 22.03455 114.28849 6671 ft 260 kts 273°
2026-05-07 12:26 22.03679 114.26906 6462 ft 261 kts 279°
2026-05-07 12:27 22.03994 114.24974 6207 ft 261 kts 280°
2026-05-07 12:27 22.04309 114.23068 6068 ft 255 kts 279°
2026-05-07 12:27 22.04608 114.21194 5982 ft 259 kts 279°
2026-05-07 12:27 22.04905 114.19265 5890 ft 263 kts 279°
2026-05-07 12:28 22.05196 114.17317 5800 ft 263 kts 279°
2026-05-07 12:28 22.05481 114.15367 5703 ft 262 kts 278°
2026-05-07 12:28 22.05758 114.13433 5602 ft 262 kts 278°
2026-05-07 12:28 22.06034 114.11493 5489 ft 261 kts 278°
2026-05-07 12:29 22.06306 114.09559 5370 ft 261 kts 278°
2026-05-07 12:29 22.06577 114.07616 5223 ft 262 kts 278°
2026-05-07 12:29 22.06849 114.05669 5107 ft 263 kts 278°
2026-05-07 12:29 22.07119 114.03720 4969 ft 263 kts 278°
2026-05-07 12:30 22.07391 114.01759 4829 ft 263 kts 278°
2026-05-07 12:30 22.07658 113.99818 4685 ft 262 kts 278°
2026-05-07 12:30 22.07926 113.97885 4521 ft 258 kts 278°
2026-05-07 12:30 22.08189 113.95976 4365 ft 256 kts 278°
2026-05-07 12:31 22.08451 113.94077 4208 ft 255 kts 277°
2026-05-07 12:31 22.08706 113.92216 4093 ft 254 kts 278°
2026-05-07 12:31 22.08964 113.90338 3964 ft 253 kts 278°
2026-05-07 12:31 22.09221 113.88464 3835 ft 252 kts 277°
2026-05-07 12:32 22.09478 113.86594 3699 ft 252 kts 278°
2026-05-07 12:32 22.09736 113.84713 3591 ft 253 kts 277°
2026-05-07 12:32 22.09991 113.82845 3460 ft 254 kts 277°
2026-05-07 12:32 22.10251 113.80952 3356 ft 255 kts 277°
2026-05-07 12:33 22.11402 113.77439 3186 ft 255 kts 317°
2026-05-07 12:33 22.12899 113.76441 3192 ft 247 kts 335°
2026-05-07 12:33 22.14394 113.75718 3137 ft 225 kts 334°
2026-05-07 12:34 22.15760 113.75044 2964 ft 208 kts 334°
2026-05-07 12:34 22.17076 113.74391 2839 ft 208 kts 334°
2026-05-07 12:34 22.18368 113.73749 2814 ft 201 kts 334°
2026-05-07 12:34 22.19625 113.73124 2678 ft 196 kts 334°
2026-05-07 12:35 22.20846 113.72515 2609 ft 197 kts 334°
2026-05-07 12:35 22.22098 113.71893 2447 ft 198 kts 335°
2026-05-07 12:35 22.23430 113.71635 2231 ft 198 kts 13°
2026-05-07 12:35 22.24582 113.72368 2169 ft 192 kts 44°
2026-05-07 12:36 22.25611 113.73343 2161 ft 201 kts 41°
2026-05-07 12:36 22.26686 113.74324 2075 ft 202 kts 41°
2026-05-07 12:36 22.27725 113.75314 2070 ft 196 kts 51°
2026-05-07 12:36 22.28365 113.76591 1982 ft 194 kts 72°
2026-05-07 12:37 22.28832 113.77934 1817 ft 182 kts 73°
2026-05-07 12:37 22.29242 113.79180 1655 ft 171 kts 73°
2026-05-07 12:37 22.29631 113.80389 1511 ft 169 kts 73°
2026-05-07 12:37 22.30008 113.81554 1279 ft 158 kts 74°
2026-05-07 12:38 22.30356 113.82634 1088 ft 151 kts 74°
2026-05-07 12:38 22.30705 113.83715 912 ft 154 kts 73°
2026-05-07 12:38 22.31053 113.84791 714 ft 153 kts 73°
2026-05-07 12:38 22.31401 113.85868 517 ft 151 kts 73°
2026-05-07 12:39 22.31747 113.86929 310 ft 151 kts 72°
2026-05-07 12:39 22.32090 113.87991 123 ft 151 kts 72°
2026-05-07 12:39 22.32421 113.89036 43 ft 135 kts 69°
2026-05-07 12:39 22.32682 113.89840 43 ft 91 kts 71°
2026-05-07 12:40 22.32825 113.90320 41 ft 44 kts 83°
2026-05-07 12:40 22.32805 113.90532 41 ft 11 kts 101°
2026-05-07 12:40 22.32803 113.90545 41 ft 1 kts 100°
2026-05-07 12:40 22.32794 113.90604 42 ft 13 kts 100°
2026-05-07 12:41 22.32787 113.90715 42 ft 17 kts 79°
2026-05-07 12:41 22.32827 113.90849 42 ft 21 kts 70°
2026-05-07 12:41 22.32880 113.91012 43 ft 25 kts 71°
2026-05-07 12:41 22.32938 113.91191 43 ft 24 kts 71°
2026-05-07 12:42 22.32994 113.91366 43 ft 27 kts 71°
2026-05-07 12:42 22.33055 113.91555 43 ft 28 kts 71°
2026-05-07 12:42 22.33116 113.91745 42 ft 25 kts 71°
2026-05-07 12:42 22.33176 113.91932 42 ft 25 kts 71°
2026-05-07 12:43 22.33212 113.92051 42 ft 16 kts 82°
2026-05-07 12:43 22.33139 113.92131 42 ft 16 kts 160°
2026-05-07 12:43 22.33034 113.92172 42 ft 16 kts 160°
2026-05-07 12:43 22.32927 113.92212 42 ft 16 kts 161°
2026-05-07 12:44 22.32821 113.92251 42 ft 16 kts 161°
2026-05-07 12:44 22.32715 113.92290 42 ft 16 kts 161°
2026-05-07 12:44 22.32595 113.92335 42 ft 20 kts 161°
2026-05-07 12:44 22.32462 113.92385 42 ft 20 kts 161°
2026-05-07 12:45 22.32329 113.92435 42 ft 20 kts 161°
2026-05-07 12:45 22.32249 113.92519 42 ft 16 kts 88°
2026-05-07 12:45 22.32273 113.92602 42 ft 7 kts 77°
2026-05-07 12:45 22.32254 113.92648 42 ft 8 kts 138°
2026-05-07 12:46 22.32207 113.92674 42 ft 5 kts 159°
2026-05-07 12:46 22.32171 113.92689 42 ft 8 kts 160°
2026-05-07 12:46 22.32096 113.92717 40 ft 9 kts 161°
2026-05-07 12:46 22.32032 113.92741 40 ft 10 kts 160°
2026-05-07 12:47 22.31955 113.92771 41 ft 12 kts 160°
2026-05-07 12:47 22.31877 113.92804 42 ft 12 kts 157°
2026-05-07 12:47 22.31803 113.92838 42 ft 10 kts 157°
2026-05-07 12:47 22.31738 113.92866 42 ft 10 kts 160°
2026-05-07 12:48 22.31672 113.92891 42 ft 10 kts 161°
2026-05-07 12:48 22.31605 113.92916 42 ft 10 kts 160°
2026-05-07 12:48 22.31540 113.92910 42 ft 10 kts 220°
2026-05-07 12:48 22.31513 113.92858 42 ft 6 kts 245°
2026-05-07 12:49 22.31471 113.92842 42 ft 7 kts 174°
2026-05-07 12:49 22.31430 113.92854 42 ft 5 kts 161°
2026-05-07 12:49 22.31415 113.92859 42 ft 1 kts 161°
2026-05-07 12:49 22.31413 113.92860 42 ft 0 kts 161°